CW7164 Weather Reports


Display with metric or nautical units.
time (UTC)temp
F
wind
direction
speed
MPH
gust
MPH
rain 1hr
in
rain 24hr
in
rain mn
in
humidity
%
barometer
mb
20260504193138 79 170 2.0 8.0 0.00 0.01 0.01 35 999.2
20260504191338 80 184 2.0 6.0 0.00 0.01 0.01 35 999.3
20260504184638 80 236 2.0 9.0 0.00 0.01 0.01 33 999.5
20260504183738 79 172 1.0 6.0 0.00 0.01 0.01 36 999.4
20260504182837 79 169 2.0 6.0 0.00 0.01 0.01 34 999.5
20260504181938 78 154 2.0 5.0 0.00 0.01 0.01 35 999.6
20260504181038 78 170 2.0 4.0 0.00 0.01 0.01 34 999.8
20260504180138 77 134 2.0 5.0 0.00 0.01 0.01 35 1000.1
20260504175238 77 174 2.0 7.0 0.00 0.01 0.01 36 1000.0
20260504174338 76 220 2.0 7.0 0.00 0.01 0.01 38 1000.1
20260504171637 75 171 2.0 6.0 0.00 0.01 0.01 36 1000.5
20260504170737 75 164 1.0 8.0 0.00 0.01 0.01 41 1000.6
20260504151037 69 144 2.0 4.0 0.00 0.01 0.01 53 1002.2
20260504140737 63 119 1.0 2.0 0.00 0.01 0.01 62 1003.0
20260504130437 54 125 1.0 3.0 0.00 0.01 0.01 70 1003.6
20260504100448 47 197 1.0 2.0 0.00 0.02 0.01 66 1004.0
20260504081647 48 0 0.0 0.0 0.00 0.02 0.01 72 1003.7
20260504080747 49 0 0.0 0.0 0.00 0.02 0.01 73 1003.8
20260504045847 55 194 0.0 2.0 0.00 0.01 0.01 70 1005.5
20260504044947 55 195 0.0 1.0 0.00 0.01 0.01 70 1005.5
20260504044047 55 194 0.0 2.0 0.00 0.01 0.01 70 1005.5
20260504043147 56 194 0.0 1.0 0.00 0.01 0.01 69 1005.4
20260504042247 56 194 0.0 1.0 0.00 0.01 0.01 69 1005.5
20260504041347 56 194 0.0 1.0 0.00 0.01 0.01 69 1005.4
20260504040447 56 194 0.0 1.0 0.00 0.01 0.01 68 1005.4
20260504035547 56 194 0.0 1.0 0.00 0.01 0.01 68 1005.4
20260504034653 56 195 0.0 1.0 0.00 0.01 0.01 67 1005.5
20260504033747 57 194 0.0 1.0 0.00 0.01 0.01 66 1005.6
20260504032847 57 195 0.0 1.0 0.00 0.01 0.01 66 1005.8
20260504031947 57 195 0.0 1.0 0.00 0.01 0.01 65 1005.9
20260504031047 58 194 0.0 1.0 0.00 0.01 0.01 64 1006.0
20260504030147 58 195 0.0 1.0 0.00 0.01 0.01 63 1006.0
20260504024347 59 195 0.0 2.0 0.00 0.01 0.01 62 1005.9
20260504023447 59 194 0.0 1.0 0.00 0.01 0.01 61 1006.0
20260504022547 60 194 0.0 1.0 0.00 0.01 0.01 60 1006.0
20260504021647 60 194 0.0 1.0 0.00 0.01 0.01 59 1005.9
20260504020747 60 194 0.0 2.0 0.00 0.01 0.01 58 1005.8
20260504015847 61 195 0.0 1.0 0.00 0.01 0.01 58 1005.6
20260504014947 61 194 0.0 2.0 0.00 0.01 0.01 57 1005.5
20260504014047 62 169 1.0 2.0 0.00 0.01 0.01 56 1005.5
20260504013147 62 170 1.0 2.0 0.00 0.01 0.01 56 1005.4
20260504012247 62 178 1.0 2.0 0.00 0.01 0.01 55 1005.3
20260504011347 63 184 1.0 3.0 0.00 0.01 0.01 54 1005.4
20260504010447 63 149 1.0 3.0 0.00 0.01 0.01 53 1005.4
20260504004647 64 170 1.0 3.0 0.00 0.01 0.01 51 1005.2
20260504003747 64 163 1.0 4.0 0.00 0.01 0.01 51 1005.3
20260504002847 65 163 1.0 5.0 0.00 0.01 0.01 50 1005.4
20260504001947 66 167 1.0 4.0 0.00 0.01 0.01 48 1005.3
20260504001047 66 173 2.0 5.0 0.00 0.01 0.01 48 1005.4
20260504000147 66 194 1.0 6.0 0.00 0.01 0.01 47 1005.3
20260503235247 66 148 2.0 4.0 0.00 0.02 0.01 47 1005.3
20260503234347 67 139 1.0 4.0 0.00 0.02 0.01 46 1005.3
20260503233447 67 154 1.0 5.0 0.00 0.02 0.01 46 1005.4
20260503232547 67 144 2.0 5.0 0.00 0.02 0.01 45 1005.3
20260503231647 68 159 2.0 5.0 0.00 0.02 0.01 44 1005.4
20260503230747 68 169 2.0 5.0 0.00 0.02 0.01 44 1005.4
20260503225847 68 181 2.0 6.0 0.00 0.02 0.01 44 1005.6
20260503224947 68 162 2.0 6.0 0.00 0.02 0.01 43 1005.7
20260503224047 67 163 2.0 5.0 0.00 0.02 0.01 45 1005.6
20260503223147 67 167 2.0 5.0 0.00 0.02 0.01 44 1005.8
20260503222247 66 154 2.0 5.0 0.00 0.02 0.01 44 1005.9
20260503221347 67 183 2.0 8.0 0.00 0.02 0.01 42 1006.0
20260503214647 67 164 2.0 4.0 0.00 0.02 0.01 45 1006.2
20260503212847 66 141 2.0 4.0 0.00 0.02 0.01 44 1006.5
20260503211946 65 171 2.0 5.0 0.00 0.02 0.01 46 1006.7
20260503211046 64 167 2.0 7.0 0.00 0.02 0.01 45 1006.8
20260503210147 65 171 2.0 6.0 0.00 0.02 0.01 45 1007.1
20260503205246 64 149 2.0 8.0 0.00 0.02 0.01 44 1007.2
20260503204346 63 176 2.0 6.0 0.00 0.02 0.01 44 1007.4
20260503203446 63 183 2.0 6.0 0.00 0.02 0.01 44 1007.6
20260503202546 63 149 2.0 7.0 0.00 0.02 0.01 45 1007.7
20260503201646 64 170 3.0 7.0 0.00 0.02 0.01 43 1007.8
20260503200746 64 158 3.0 8.0 0.00 0.02 0.01 45 1007.7
20260503195846 65 157 3.0 7.0 0.00 0.02 0.01 45 1007.9
20260503194946 65 158 3.0 10.0 0.00 0.02 0.01 46 1007.9